Tracking 19827 objects as of 21-Aug-2019
HD Live streaming from Space Station
objects crossing your sky now

COSMOS 2251 DEB

Track COSMOS 2251 DEB now!
10-day predictions


NORAD ID: 35280
Int'l Code: 1993-036AJJ
Perigee: 704.7 km
Apogee: 794.8 km
Inclination: 74.0 °
Period: 99.7 minutes
Semi major axis: 7120 km
RCS: 0.0144 m2 (small)
Launch date: June 16, 1993
Source: Commonwealth of Independent States (former USSR) (CIS)
Launch site: PLESETSK MISSILE AND SPACE COMPLEX (PKMTR)

Note: This is SATELLITE DEBRIS
aabbcc
Your satellite tracking list
Your tracking list is empty




NASA's NSSDC Master Catalog

Two Line Element Set (TLE):
1 35280U 93036AJJ 19231.50011667 +.00000543 +00000-0 +16016-3 0  9990
2 35280 074.0340 155.2352 0063254 087.3571 028.9780 14.44812874538623
Source of the keplerian elements: AFSPC